Location: Waldport
(44.4270°N, 124.0680°W)
Time: 06:32:23
(UTC-07:00)

Amateur Radio Satellites - All Passes

Search period start: 22 September 2017 06:02
Search period end: 23 September 2017 06:02
Location: Waldport, 44.4270°N, 124.0680°W

Satellite Date Start Highest point End Downlink Frequencies (MHz)
Time Altitude Azimuth
CUBESAT XI-V 22 Sep 06:03:56 06:07:03 17° 269° (W) 06:10:12 437.345
BEESAT 3 22 Sep 06:10:18 06:13:50 31° 244° (WSW) 06:17:18 437.485
CUTE-I 22 Sep 06:12:25 06:14:12 12° 87° (E) 06:15:57 437.470
BEESAT 2 22 Sep 06:13:07 06:17:11 89° 44° (NE) 06:21:12 435.950
KKS-1 22 Sep 06:13:19 06:17:14 31° 263° (W) 06:21:11 437.445
ITAMSAT 1 22 Sep 06:14:12 06:18:28 26° 297° (WNW) 06:22:45 435.822/435.867
XW-2D 22 Sep 06:20:19 06:22:07 13° 90° (E) 06:23:56 145.860 - 145.880
RS-15 22 Sep 06:25:49 06:38:00 74° 119° (ESE) 06:50:15 29.354- 29.394
XW-2B 22 Sep 06:31:59 06:34:32 17° 92° (E) 06:37:04 145.730 - 145.750
XW-2F 22 Sep 06:33:23 06:35:54 17° 92° (E) 06:38:23 145.980 - 146.000
STARS 22 Sep 06:42:16 06:46:16 36° 262° (W) 06:50:19 437.465
STRAND 1 22 Sep 06:51:33 06:55:47 27° 64° (ENE) 07:00:03 437.568
HO-68 22 Sep 06:51:47 06:54:42 13° 86° (E) 06:57:35 435.675
XW-2C 22 Sep 06:52:35 06:55:59 29° 96° (E) 06:59:19 145.795 - 145.815
NUDT-PHONESAT 22 Sep 07:01:44 07:04:58 27° 96° (E) 07:08:08 437.300
LilacSat-2 22 Sep 07:02:40 07:06:20 41° 98° (E) 07:09:58 437.200
DOVE 4 22 Sep 07:05:30 07:09:36 54° 287° (WNW) 07:13:51 437.250
AO-85 22 Sep 07:10:49 07:14:35 26° 245° (WSW) 07:18:33 145.980
KAITUO 1B 22 Sep 07:27:13 07:30:56 57° 100° (E) 07:34:35 145.475/437.950
AO-7 22 Sep 07:32:55 07:38:12 19° 315° (NW) 07:43:28 .
CUTE-I 22 Sep 07:49:37 07:54:59 87° 104° (ESE) 08:00:20 437.470
XW-2D 22 Sep 07:52:53 07:56:35 48° 287° (WNW) 08:00:14 145.860 - 145.880
SEEDS 22 Sep 08:00:54 08:04:14 22° 93° (E) 08:07:32 437.485
XW-2B 22 Sep 08:05:19 08:08:51 36° 289° (WNW) 08:12:21 145.730 - 145.750
XW-2F 22 Sep 08:06:38 08:10:10 36° 289° (WNW) 08:13:38 145.980 - 146.000
FO-29 22 Sep 08:09:39 08:13:27 19° 61° (ENE) 08:17:05 435.910
CUTE 1.7 + AOD 2 22 Sep 08:25:10 08:29:25 67° 101° (E) 08:33:36 437.475
XW-2C 22 Sep 08:27:03 08:30:00 21° 293° (WNW) 08:32:54 145.795 - 145.815
AAUSAT CUBESAT 2 22 Sep 08:28:38 08:31:43 20° 93° (E) 08:34:47 437.432
STRAND 1 22 Sep 08:29:59 08:34:46 41° 262° (W) 08:39:35 437.568
NUDT-PHONESAT 22 Sep 08:35:45 08:38:42 22° 292° (WNW) 08:41:38 437.300
HO-68 22 Sep 08:36:25 08:43:37 72° 104° (ESE) 08:50:48 435.675
CUBEBUG 2 22 Sep 08:37:37 08:42:13 53° 99° (E) 08:46:51 437.445
LilacSat-2 22 Sep 08:37:52 08:40:17 16° 295° (WNW) 08:42:40 437.200
RS-15 22 Sep 08:39:53 08:51:33 45° 325° (NW) 09:03:08 29.354- 29.394
UWE-3 22 Sep 08:48:01 08:52:25 40° 97° (E) 08:56:49 435.000/436.395/437.385
TIGRISAT 22 Sep 08:57:41 08:59:38 13° 60° (ENE) 09:01:36 435.000
KAITUO 1B 22 Sep 09:02:58 09:04:25 12° 298° (WNW) 09:05:53 145.475/437.950
XW-2A 22 Sep 09:13:53 09:17:19 69° 285° (WNW) 09:20:43 145.665 - 145.685
CUTE-I 22 Sep 09:31:24 09:34:18 15° 303° (WNW) 09:37:11 437.470
SEEDS 22 Sep 09:36:13 09:39:59 33° 291° (WNW) 09:43:43 437.485
AO-73 22 Sep 09:37:13 09:41:47 64° 101° (E) 09:46:19 145.935
Oscar 11 22 Sep 09:38:19 09:42:30 45° 99° (E) 09:46:39 .
ZACube-1 22 Sep 09:39:06 09:43:43 75° 103° (ESE) 09:48:17 437.345
FO-29 22 Sep 09:52:27 09:58:10 64° 258° (WSW) 10:03:26 435.910
PRISM 22 Sep 09:57:49 10:01:23 29° 68° (ENE) 10:04:56 437.425
Max Valier Satellite 22 Sep 10:00:52 10:02:26 12° 90° (E) 10:04:01 145.860
CUTE 1.7 + AOD 2 22 Sep 10:02:44 10:04:42 13° 299° (WNW) 10:06:38 437.475
AAUSAT CUBESAT 2 22 Sep 10:03:31 10:07:17 35° 290° (WNW) 10:11:01 437.432
UNISAT 6 22 Sep 10:07:14 10:11:32 68° 74° (ENE) 10:15:58 437.425
DELFI C3 22 Sep 10:11:13 10:14:21 22° 94° (E) 10:17:27 145.870
CUBEBUG 2 22 Sep 10:15:08 10:18:27 19° 296° (WNW) 10:21:46 437.445
UWE-3 22 Sep 10:24:55 10:28:38 24° 294° (WNW) 10:32:21 435.000/436.395/437.385
HO-68 22 Sep 10:25:04 10:30:43 26° 304° (WNW) 10:36:22 435.675
TIGRISAT 22 Sep 10:31:22 10:35:41 74° 259° (WSW) 10:40:08 435.000
RS-15 22 Sep 10:58:06 11:08:16 28° 358° (N) 11:18:10 29.354- 29.394
EO-88 22 Sep 11:03:18 11:06:53 50° 100° (E) 11:10:25 145.990 - 145.960
AIST 2D 22 Sep 11:04:43 11:07:48 28° 70° (ENE) 11:10:55 435.315
DUCHIFAT 1 22 Sep 11:05:06 11:06:40 12° 60° (ENE) 11:08:12 145.980
YUBILEINY 22 Sep 11:12:00 11:15:34 13° 72° (ENE) 11:19:09 435.215
AO-73 22 Sep 11:14:46 11:17:29 16° 298° (WNW) 11:20:12 145.935
POLYITAN 1 22 Sep 11:15:01 11:17:58 19° 64° (ENE) 11:20:56 437.675
Oscar 11 22 Sep 11:15:14 11:18:18 19° 296° (WNW) 11:21:22 .
ZACube-1 22 Sep 11:17:04 11:19:22 14° 299° (WNW) 11:21:40 437.345
EO-79 22 Sep 11:19:31 11:22:39 21° 65° (ENE) 11:25:48 145.935-145.965
QB50P2 22 Sep 11:31:57 11:35:38 30° 68° (ENE) 11:39:20 145.880/145.840
Max Valier Satellite 22 Sep 11:32:55 11:36:33 49° 287° (WNW) 11:40:10 145.860
PRISM 22 Sep 11:33:15 11:36:38 25° 265° (W) 11:40:02 437.425
ESTCUBE 1 22 Sep 11:34:32 11:36:23 12° 89° (E) 11:38:14 437.505/2401.250
M-CUBED/EXP-1 PRIME 22 Sep 11:44:46 11:47:58 21° 61° (ENE) 11:51:02 437.505
DELFI C3 22 Sep 11:45:42 11:49:06 29° 291° (WNW) 11:52:29 145.870
UNISAT 6 22 Sep 11:47:01 11:48:45 12° 272° (W) 11:50:31 437.425
LO-87 22 Sep 12:04:22 12:07:42 34° 98° (E) 12:11:02 145.935 - 145.965
NANOSAT C BR1 22 Sep 12:08:20 12:12:27 59° 73° (ENE) 12:16:37 145.865
O/OREOS (USA 219) 22 Sep 12:25:58 12:30:19 40° 60° (ENE) 12:34:38 437.305
DUCHIFAT 1 22 Sep 12:37:33 12:41:43 75° 258° (WSW) 12:45:56 145.980
EO-88 22 Sep 12:38:26 12:40:06 13° 297° (WNW) 12:41:46 145.990 - 145.960
AIST 2D 22 Sep 12:38:27 12:41:01 19° 267° (W) 12:43:36 435.315
Gurwin Techsat 1B 22 Sep 12:48:46 12:52:14 18° 59° (ENE) 12:55:41 435.225
POLYITAN 1 22 Sep 12:49:25 12:53:26 43° 261° (W) 12:57:30 437.675
EO-79 22 Sep 12:54:15 12:58:09 38° 262° (W) 13:02:08 145.935-145.965
AO-7 22 Sep 13:01:20 13:04:11 12° 38° (NE) 13:07:03 .
YUBILEINY 22 Sep 13:02:01 13:10:37 69° 93° (E) 13:19:14 435.215
QB50P2 22 Sep 13:07:53 13:11:23 25° 265° (W) 13:14:57 145.880/145.840
ESTCUBE 1 22 Sep 13:09:11 13:13:41 70° 286° (WNW) 13:18:07 437.505/2401.250
Oscar 19 22 Sep 13:13:00 13:17:47 39° 68° (ENE) 13:22:36 437.125/150
RS-15 22 Sep 13:13:50 13:25:11 41° 32° (NNE) 13:35:57 29.354- 29.394
M-CUBED/EXP-1 PRIME 22 Sep 13:18:08 13:22:12 39° 256° (WSW) 13:26:01 437.505
BUGSAT 1 22 Sep 13:18:25 13:22:25 83° 75° (ENE) 13:26:30 437.445
NO-84 22 Sep 13:22:10 13:25:05 20° 130° (SE) 13:27:49 435.350 FM
LO-87 22 Sep 13:38:30 13:40:52 17° 294° (WNW) 13:43:13 145.935 - 145.965
VELOX 1 22 Sep 13:44:04 13:48:21 51° 100° (E) 13:52:37 145.980
50 SAT 22 Sep 13:46:18 13:48:19 15° 93° (E) 13:50:19 437.505
NANOSAT C BR1 22 Sep 13:46:37 13:48:33 13° 270° (W) 13:50:29 145.865
SPROUT 22 Sep 13:53:29 13:57:48 88° 284° (WNW) 14:02:06 437.525
O/OREOS (USA 219) 22 Sep 14:05:51 14:09:29 23° 258° (WSW) 14:13:06 437.305
ITAMSAT 1 22 Sep 14:18:15 14:20:19 12° 55° (NE) 14:22:23 435.822/435.867
SO-50 22 Sep 14:20:59 14:24:37 25° 114° (ESE) 14:28:16 436.795
Gurwin Techsat 1B 22 Sep 14:26:17 14:31:35 72° 257° (WSW) 14:36:55 435.225
AO-7 22 Sep 14:47:06 14:54:53 46° 60° (ENE) 15:02:38 .
Oscar 19 22 Sep 14:52:42 14:57:10 29° 265° (W) 15:01:40 437.125/150
UKube-1 22 Sep 14:52:53 14:57:03 48° 100° (E) 15:01:13 .
DX 1 22 Sep 14:57:01 15:01:24 83° 107° (ESE) 15:05:43 434.975-435.025
NO-84 22 Sep 14:58:35 15:02:16 57° 326° (NW) 15:05:40 435.350 FM
YUBILEINY 22 Sep 15:00:54 15:08:09 29° 295° (WNW) 15:15:28 435.215
BEESAT 22 Sep 15:16:29 15:18:02 11° 88° (E) 15:19:34 436.000
PCSat 22 Sep 15:16:51 15:21:58 44° 113° (ESE) 15:27:07 145.827
50 SAT 22 Sep 15:17:57 15:20:54 30° 289° (WNW) 15:23:50 437.505
VELOX 1 22 Sep 15:21:31 15:24:24 17° 297° (WNW) 15:27:17 145.980
RS-15 22 Sep 15:26:55 15:38:58 81° 240° (WSW) 15:50:18 29.354- 29.394
SPROUT 22 Sep 15:32:42 15:32:59 10° 301° (WNW) 15:33:15 437.525
ITAMSAT 1 22 Sep 15:53:46 15:58:56 81° 74° (ENE) 16:04:08 435.822/435.867
MOZHAYETS 4 22 Sep 15:56:49 16:00:54 29° 95° (E) 16:04:56
SO-50 22 Sep 16:00:34 16:04:51 43° 312° (NW) 16:09:10 436.795
ITUPSAT 1 22 Sep 16:14:12 16:18:47 42° 99° (E) 16:23:20 437.325
CUBESAT XI-V 22 Sep 16:21:51 16:23:24 11° 88° (E) 16:24:57 437.345
UKube-1 22 Sep 16:29:48 16:32:43 18° 297° (WNW) 16:35:38 .
DX 1 22 Sep 16:35:29 16:36:55 11° 301° (WNW) 16:38:20 434.975-435.025
DOVE 4 22 Sep 16:36:22 16:39:23 19° 65° (ENE) 16:42:20 437.250
NO-84 22 Sep 16:37:48 16:40:11 17° 344° (NNW) 16:42:27 435.350 FM
AO-7 22 Sep 16:39:42 16:47:36 46° 260° (W) 16:55:32 .
BEESAT 22 Sep 16:51:35 16:56:24 83° 285° (WNW) 17:01:12 436.000
PCSat 22 Sep 17:00:39 17:05:30 32° 313° (NW) 17:10:23 145.827
XW-2B 22 Sep 17:15:58 17:17:26 12° 62° (ENE) 17:18:53 145.730 - 145.750
XW-2F 22 Sep 17:17:02 17:18:23 12° 62° (ENE) 17:19:44 145.980 - 146.000
HO-68 22 Sep 17:23:32 17:26:59 14° 48° (NE) 17:30:26 435.675
MOZHAYETS 4 22 Sep 17:33:56 17:38:01 31° 293° (WNW) 17:42:04
CUTE-I 22 Sep 17:34:38 17:38:50 24° 63° (ENE) 17:43:03 437.470
XW-2C 22 Sep 17:35:42 17:38:31 20° 66° (ENE) 17:41:20 145.795 - 145.815
ITAMSAT 1 22 Sep 17:36:35 17:39:01 13° 271° (W) 17:41:28 435.822/435.867
RS-15 22 Sep 17:41:31 17:49:19 21° 262° (W) 17:56:55 29.354- 29.394
NUDT-PHONESAT 22 Sep 17:42:55 17:45:23 17° 65° (ENE) 17:47:51 437.300
SO-50 22 Sep 17:45:35 17:46:30 10° 334° (NNW) 17:47:25 436.795
LilacSat-2 22 Sep 17:46:03 17:49:20 27° 69° (ENE) 17:52:39 437.200
ITUPSAT 1 22 Sep 17:52:31 17:56:22 24° 296° (WNW) 18:00:13 437.325
CUBESAT XI-V 22 Sep 17:56:42 18:01:21 78° 285° (WNW) 18:05:56 437.345
KKS-1 22 Sep 18:01:49 18:06:02 41° 99° (E) 18:10:15 437.445
KAITUO 1B 22 Sep 18:08:27 18:11:53 33° 70° (ENE) 18:15:19 145.475/437.950
DOVE 4 22 Sep 18:12:33 18:16:49 45° 261° (W) 18:20:55 437.250
NO-84 22 Sep 18:16:55 18:18:36 13° 6° (N) 18:20:14 435.350 FM
STARS 22 Sep 18:29:27 18:33:28 34° 97° (E) 18:37:28 437.465
BEESAT 22 Sep 18:31:50 18:33:23 11° 303° (WNW) 18:34:57 436.000
XW-2D 22 Sep 18:34:54 18:38:45 84° 258° (WSW) 18:42:38 145.860 - 145.880
XW-2B 22 Sep 18:47:17 18:51:05 62° 259° (W) 18:54:55 145.730 - 145.750
XW-2F 22 Sep 18:48:11 18:51:59 63° 260° (W) 18:55:48 145.980 - 146.000
SEEDS 22 Sep 18:54:13 18:57:21 20° 65° (ENE) 19:00:30 437.485
HO-68 22 Sep 19:06:19 19:13:20 63° 68° (ENE) 19:20:23 435.675
XW-2C 22 Sep 19:08:58 19:12:29 33° 263° (W) 19:16:00 145.795 - 145.815
CUTE-I 22 Sep 19:13:27 19:18:34 49° 260° (W) 19:23:45 437.470
NUDT-PHONESAT 22 Sep 19:15:26 19:18:57 38° 262° (W) 19:22:30 437.300
CUTE 1.7 + AOD 2 22 Sep 19:18:52 19:23:04 57° 74° (ENE) 19:27:18 437.475
LilacSat-2 22 Sep 19:20:23 19:23:34 24° 266° (W) 19:26:47 437.200
AAUSAT CUBESAT 2 22 Sep 19:20:32 19:23:20 18° 65° (ENE) 19:26:09 437.432
CUBEBUG 2 22 Sep 19:37:11 19:41:17 49° 72° (ENE) 19:45:31 437.445
KKS-1 22 Sep 19:38:59 19:42:20 21° 296° (WNW) 19:45:41 437.445
KAITUO 1B 22 Sep 19:43:14 19:45:57 19° 267° (W) 19:48:41 145.475/437.950
XW-2A 22 Sep 19:46:09 19:49:24 45° 74° (ENE) 19:52:43 145.665 - 145.685
UWE-3 22 Sep 19:46:28 19:50:24 37° 70° (ENE) 19:54:30 435.000/436.395/437.385
NO-84 22 Sep 19:53:59 19:56:48 30° 28° (NNE) 19:59:27 435.350 FM
BEESAT 3 22 Sep 20:00:58 20:04:20 26° 115° (ESE) 20:07:43 437.485
STARS 22 Sep 20:06:04 20:09:39 25° 294° (WNW) 20:13:15 437.465
SEEDS 22 Sep 20:28:47 20:32:46 39° 262° (W) 20:36:47 437.485
AO-73 22 Sep 20:33:50 20:38:04 58° 73° (ENE) 20:42:27 145.935
Oscar 11 22 Sep 20:34:20 20:38:25 42° 71° (ENE) 20:42:33 .
ZACube-1 22 Sep 20:36:00 20:40:18 68° 74° (ENE) 20:44:44 437.345
STRAND 1 22 Sep 20:38:14 20:43:20 60° 101° (E) 20:48:25 437.568
AAUSAT CUBESAT 2 22 Sep 20:54:28 20:58:28 44° 261° (W) 21:02:29 437.432
HO-68 22 Sep 20:55:40 21:01:31 27° 267° (W) 21:07:25 435.675
CUTE 1.7 + AOD 2 22 Sep 20:57:00 20:59:16 14° 270° (W) 21:01:31 437.475
DELFI C3 22 Sep 20:58:29 21:01:07 17° 65° (ENE) 21:03:44 145.870
Tancredo 1 22 Sep 20:59:41 21:02:23 88° 333° (NNW) 21:05:05 437.200
ISS 22 Sep 21:00:21 21:02:28 16° 134° (SE) 21:04:36 437.550
FO-29 22 Sep 21:00:30 21:03:01 13° 90° (E) 21:05:38 435.910
CUBEBUG 2 22 Sep 21:15:37 21:18:14 16° 270° (W) 21:20:54 437.445
XW-2A 22 Sep 21:21:26 21:22:24 11° 270° (W) 21:23:21 145.665 - 145.685
UWE-3 22 Sep 21:23:40 21:27:00 22° 268° (W) 21:30:25 435.000/436.395/437.385
AO-85 22 Sep 21:26:24 21:30:16 67° 121° (ESE) 21:34:11 145.980
NO-84 22 Sep 21:31:30 21:34:05 27° 227° (SW) 21:36:34 435.350 FM
BEESAT 3 22 Sep 21:38:04 21:41:46 34° 313° (NW) 21:45:30 437.485
nSIGHT-1 22 Sep 21:40:30 21:43:33 40° 142° (SE) 21:46:37 .
EO-88 22 Sep 21:42:29 21:45:38 27° 69° (ENE) 21:48:47 145.990 - 145.960
BEESAT 2 22 Sep 21:42:35 21:46:36 86° 308° (NW) 21:50:41 435.950
UNISAT 6 22 Sep 21:58:29 22:00:53 14° 89° (E) 22:03:16 437.425
Oscar 11 22 Sep 22:11:35 22:14:44 19° 268° (W) 22:17:54 .
AO-73 22 Sep 22:12:20 22:14:43 14° 271° (W) 22:17:07 145.935
Max Valier Satellite 22 Sep 22:12:37 22:16:19 87° 76° (ENE) 22:20:05 145.860
ZACube-1 22 Sep 22:15:22 22:17:05 12° 272° (W) 22:18:50 437.345
STRAND 1 22 Sep 22:18:24 22:22:03 20° 299° (WNW) 22:25:43 437.568
PCSat 22 Sep 22:20:56 22:23:24 13° 31° (NNE) 22:25:52 145.827
TIGRISAT 22 Sep 22:21:28 22:25:05 22° 93° (E) 22:28:42 435.000
DELFI C3 22 Sep 22:31:49 22:35:34 41° 262° (W) 22:39:20 145.870
Tancredo 1 22 Sep 22:35:01 22:37:11 21° 348° (NNW) 22:39:22 437.200
ISS 22 Sep 22:35:19 22:38:36 74° 332° (NNW) 22:41:53 437.550
ESTCUBE 1 22 Sep 22:35:25 22:38:03 16° 61° (ENE) 22:40:43 437.505/2401.250
LO-87 22 Sep 22:42:28 22:44:58 19° 67° (ENE) 22:47:29 145.935 - 145.965
FO-29 22 Sep 22:43:15 22:48:42 87° 285° (WNW) 22:54:43 435.910
SO-50 22 Sep 22:49:38 22:53:56 38° 47° (NE) 22:58:15 436.795
AO-85 22 Sep 23:08:31 23:11:05 16° 322° (NW) 23:13:41 145.980
YUBILEINY 22 Sep 23:10:13 23:18:10 37° 69° (ENE) 23:26:05 435.215
PRISM 22 Sep 23:11:57 23:15:44 36° 98° (E) 23:19:28 437.425
EO-88 22 Sep 23:16:26 23:19:16 21° 266° (W) 23:22:07 145.990 - 145.960
nSIGHT-1 22 Sep 23:16:52 23:19:54 37° 340° (NNW) 23:22:58 .
BEESAT 2 22 Sep 23:22:45 23:24:59 14° 324° (NW) 23:27:13 435.950
UNISAT 6 22 Sep 23:33:22 23:38:01 68° 286° (WNW) 23:42:41 437.425
TIGRISAT 22 Sep 23:57:31 00:01:55 43° 289° (WNW) 00:06:22 435.000
AIST 2D 23 Sep 00:00:49 00:03:52 27° 96° (E) 00:06:54 435.315
PCSat 23 Sep 00:02:48 00:08:07 52° 54° (NE) 00:13:23 145.827
ESTCUBE 1 23 Sep 00:09:51 00:14:21 64° 259° (WSW) 00:18:52 437.505/2401.250
Tancredo 1 23 Sep 00:10:19 00:12:21 19° 7° (N) 00:14:22 437.200
ISS 23 Sep 00:12:39 00:15:27 25° 350° (N) 00:18:16 437.550
LO-87 23 Sep 00:15:05 00:18:12 29° 264° (W) 00:21:20 145.935 - 145.965
DUCHIFAT 1 23 Sep 00:20:53 00:23:26 15° 91° (E) 00:25:58 145.980
DX 1 23 Sep 00:21:58 00:22:35 10° 58° (ENE) 00:23:12 434.975-435.025
SO-50 23 Sep 00:30:18 00:34:17 29° 245° (WSW) 00:38:17 436.795
FO-29 23 Sep 00:30:32 00:33:09 14° 302° (WNW) 00:35:52 435.910
POLYITAN 1 23 Sep 00:32:32 00:36:10 26° 95° (E) 00:39:46 437.675
EO-79 23 Sep 00:36:59 00:40:43 29° 96° (E) 00:44:26 145.935-145.965
VELOX 1 23 Sep 00:42:29 00:46:47 56° 72° (ENE) 00:51:06 145.980
PRISM 23 Sep 00:47:45 00:50:46 20° 295° (WNW) 00:53:46 437.425
SPROUT 23 Sep 00:47:53 00:52:07 84° 73° (ENE) 00:56:23 437.525
QB50P2 23 Sep 00:50:03 00:54:09 44° 99° (E) 00:58:15 145.880/145.840
nSIGHT-1 23 Sep 00:54:12 00:56:50 22° 360° (N) 00:59:29 .
BUGSAT 1 23 Sep 01:00:39 01:01:44 11° 89° (E) 01:02:49 437.445
YUBILEINY 23 Sep 01:06:53 01:15:15 53° 270° (W) 01:23:38 435.215
Oscar 19 23 Sep 01:25:14 01:26:41 11° 87° (E) 01:28:08 437.125/150
NANOSAT C BR1 23 Sep 01:26:13 01:30:30 88° 105° (ESE) 01:34:47 145.865
AIST 2D 23 Sep 01:34:17 01:36:54 20° 292° (WNW) 01:39:29 435.315
Tancredo 1 23 Sep 01:44:38 01:47:18 52° 27° (NNE) 01:49:57 437.200
PCSat 23 Sep 01:46:48 01:51:11 25° 252° (WSW) 01:55:32 145.827
50 SAT 23 Sep 01:48:30 01:51:48 75° 258° (WSW) 01:55:07 437.505
UKube-1 23 Sep 01:48:33 01:52:41 50° 71° (ENE) 01:56:52 .
ISS 23 Sep 01:49:48 01:52:38 25° 10° (N) 01:55:27 437.550
DX 1 23 Sep 01:53:42 01:58:03 88° 73° (ENE) 02:02:24 434.975-435.025
DUCHIFAT 1 23 Sep 01:55:15 01:59:23 51° 288° (WNW) 02:03:30 145.980
POLYITAN 1 23 Sep 02:08:09 02:11:56 30° 292° (WNW) 02:15:41 437.675
EO-79 23 Sep 02:12:46 02:16:24 27° 293° (WNW) 02:20:02 145.935-145.965
VELOX 1 23 Sep 02:21:03 02:23:34 15° 269° (W) 02:26:06 145.980
BEESAT 23 Sep 02:23:40 02:26:49 18° 61° (ENE) 02:29:58 436.000
QB50P2 23 Sep 02:26:35 02:29:38 19° 296° (WNW) 02:32:40 145.880/145.840
M-CUBED/EXP-1 PRIME 23 Sep 02:29:12 02:32:32 68° 290° (WNW) 02:35:46 437.505
nSIGHT-1 23 Sep 02:30:44 02:33:47 36° 20° (NNE) 02:36:50 .
BUGSAT 1 23 Sep 02:33:21 02:37:32 72° 285° (WNW) 02:41:45 437.445
O/OREOS (USA 219) 23 Sep 02:40:08 02:44:07 32° 105° (ESE) 02:48:11 437.305
Gurwin Techsat 1B 23 Sep 02:40:54 02:45:54 40° 98° (E) 02:50:51 435.225
MOZHAYETS 4 23 Sep 03:00:02 03:04:11 34° 68° (ENE) 03:08:23
Oscar 19 23 Sep 03:01:32 03:06:45 88° 104° (ESE) 03:11:54 437.125/150
NANOSAT C BR1 23 Sep 03:04:45 03:05:31 10° 301° (WNW) 03:06:17 145.865
Tancredo 1 23 Sep 03:19:43 03:21:35 17° 224° (SW) 03:23:26 437.200
ITUPSAT 1 23 Sep 03:22:15 03:26:56 59° 72° (ENE) 03:31:40 437.325
ISS 23 Sep 03:26:10 03:29:29 77° 30° (NNE) 03:32:46 437.550
CUBESAT XI-V 23 Sep 03:26:12 03:28:58 16° 61° (ENE) 03:31:43 437.345
UKube-1 23 Sep 03:26:19 03:29:00 16° 268° (W) 03:31:40 .
RS-15 23 Sep 03:47:49 03:52:28 13° 92° (E) 03:57:06 29.354- 29.394
BEESAT 23 Sep 03:59:25 04:04:07 60° 259° (WSW) 04:08:51 436.000
ITAMSAT 1 23 Sep 04:05:27 04:09:41 24° 94° (E) 04:13:53 435.822/435.867
nSIGHT-1 23 Sep 04:07:03 04:10:10 43° 218° (SW) 04:13:17 .
BEESAT 3 23 Sep 04:15:37 04:19:09 28° 45° (NE) 04:22:36 437.485
AO-85 23 Sep 04:15:47 04:18:35 16° 38° (NE) 04:21:30 145.980
O/OREOS (USA 219) 23 Sep 04:19:36 04:23:32 29° 304° (WNW) 04:27:30 437.305
Gurwin Techsat 1B 23 Sep 04:21:08 04:25:41 30° 295° (WNW) 04:30:14 435.225
BEESAT 2 23 Sep 04:22:02 04:24:25 15° 36° (NE) 04:26:48 435.950
MOZHAYETS 4 23 Sep 04:37:29 04:41:22 26° 265° (W) 04:45:18
AO-7 23 Sep 04:38:43 04:46:52 56° 103° (ESE) 04:54:57 .
Oscar 19 23 Sep 04:42:41 04:45:19 14° 303° (WNW) 04:47:58 437.125/150
CUBESAT XI-V 23 Sep 05:01:07 05:05:47 67° 258° (WSW) 05:10:30 437.345
KKS-1 23 Sep 05:01:10 05:05:23 47° 71° (ENE) 05:09:38 437.445
ITUPSAT 1 23 Sep 05:02:10 05:05:09 16° 269° (W) 05:08:09 437.325
ISS 23 Sep 05:03:32 05:05:35 16° 227° (SW) 05:07:38 437.550
STARS 23 Sep 05:27:24 05:31:24 37° 69° (ENE) 05:35:25 437.465
ITAMSAT 1 23 Sep 05:44:22 05:49:19 45° 291° (WNW) 05:54:16 435.822/435.867
BEESAT 3 23 Sep 05:53:09 05:56:41 31° 244° (WSW) 06:00:10 437.485
